Weather History for Winner, SD

Change the Weather History Date:

Sunday, October 27, 2013

  Actual Average Record
Temperature  
Mean Temperature 52 °F 46 °F  
Max Temperature 67 °F 57 °F 67 °F (2013)
Min Temperature 36 °F 35 °F 23 °F (2008)
Degree Days  
Heating Degree Days 13 19  
Month to date heating degree days 429 376  
Since 1 July heating degree days 484 518  
Cooling Degree Days 0 0  
Month to date cooling degree days 2 9  
Year to date cooling degree days 1014 915  
Growing Degree Days 2 (Base 50)    
Moisture  
Dew Point 32 °F    
Average Humidity 53    
Maximum Humidity 76    
Minimum Humidity 29    
Precipitation  
Precipitation 0.00 in 0.04 in 0.02 in (2010)
Month to date precipitation 3.95 1.51  
Year to date precipitation 20.68 20.50  
Sea Level Pressure  
Sea Level Pressure 29.92 in    
Wind  
Wind Speed 10 mph (ENE)    
Max Wind Speed 23 mph    
Max Gust Speed 29 mph    
Visibility 10 miles    
Events      
T = Trace of Precipitation, MM = Missing Value Source: NWS Daily Summary

Daily Weather History Graph

Daily Weather History Graph

Search for Another Location

Airport:

Trip Planner

Search our weather history database for the weather conditions in past years. The results will help you decide how hot, cold, wet, or windy it might be!

Date:

Astronomy

Oct. 27, 2013 Rise Set
Actual Time 8:08 AM CDT 6:37 PM CDT
Civil Twilight 7:39 AM CDT 7:06 PM CDT
Nautical Twilight 7:05 AM CDT 7:40 PM CDT
Astronomical Twilight 6:32 AM CDT 8:13 PM CDT
Moon 12:55 AM CDT (10/27) 2:57 PM CDT (10/27)
Length of Visible Light 11h 27m
Length of Day
10h 28m
Last Quarter, 43% of the Moon is Illuminated
Oct 27
Last Quarter
Nov 3
New
Nov 9
First Quarter
Nov 17
Full
Nov 25
Last Quarter

Hourly Weather History & Observations

Time (CDT) Temp. Windchill Dew Point Humidity Pressure Visibility Wind Dir Wind Speed Gust Speed Precip Events Conditions
12:53 AM 45.0 °F 38.5 °F 21.0 °F 39% 30.01 in 10.0 mi SSW 13.8 mph - N/A   Clear
1:53 AM 45.0 °F 38.5 °F 23.0 °F 42% 29.96 in 10.0 mi SSW 13.8 mph - N/A   Clear
2:53 AM 46.9 °F - 23.0 °F 39% 29.92 in 10.0 mi SSW 18.4 mph - N/A   Clear
3:53 AM 45.0 °F 37.6 °F 24.1 °F 44% 29.89 in 10.0 mi SSW 17.3 mph - N/A   Clear
4:53 AM 43.0 °F 38.2 °F 28.0 °F 56% 29.87 in 10.0 mi SW 8.1 mph - N/A   Clear
5:53 AM 44.1 °F 40.1 °F 28.9 °F 55% 29.86 in 10.0 mi SW 6.9 mph - N/A   Clear
6:53 AM 45.0 °F 40.6 °F 30.0 °F 56% 29.85 in 10.0 mi SSW 8.1 mph - N/A   Clear
7:53 AM 44.1 °F 40.8 °F 30.0 °F 58% 29.86 in 10.0 mi SW 5.8 mph - N/A   Clear
8:53 AM 44.1 °F 42.5 °F 30.9 °F 60% 29.87 in 10.0 mi SSW 3.5 mph - N/A   Clear
9:53 AM 48.9 °F - 34.0 °F 56% 29.88 in 10.0 mi Calm Calm - N/A   Clear
10:53 AM 55.9 °F - 35.1 °F 45% 29.88 in 10.0 mi NW 8.1 mph - N/A   Clear
11:53 AM 59.0 °F - 36.0 °F 42% 29.87 in 10.0 mi NW 9.2 mph - N/A   Clear
12:53 PM 63.0 °F - 37.0 °F 38% 29.86 in 10.0 mi Calm Calm - N/A   Clear
1:53 PM 64.9 °F - 36.0 °F 34% 29.83 in 10.0 mi NNE 8.1 mph - N/A   Clear
2:53 PM 66.9 °F - 35.1 °F 31% 29.82 in 10.0 mi NNE 10.4 mph - N/A   Clear
3:53 PM 66.0 °F - 34.0 °F 30% 29.83 in 10.0 mi NE 11.5 mph - N/A   Clear
4:53 PM 64.0 °F - 37.9 °F 38% 29.85 in 10.0 mi ENE 12.7 mph - N/A   Clear
5:53 PM 59.0 °F - 37.9 °F 46% 29.88 in 10.0 mi NE 13.8 mph - N/A   Clear
6:53 PM 51.1 °F - 36.0 °F 56% 29.94 in 10.0 mi ENE 10.4 mph - N/A   Clear
7:53 PM 46.9 °F - 35.1 °F 63% 29.99 in 10.0 mi NE 15.0 mph - N/A   Clear
8:53 PM 45.0 °F 36.9 °F 34.0 °F 65% 30.02 in 10.0 mi NE 20.7 mph 25.3 mph N/A   Clear
9:53 PM 42.1 °F 35.2 °F 33.1 °F 70% 30.06 in 10.0 mi NE 12.7 mph - N/A   Clear
10:53 PM 39.0 °F 31.0 °F 30.9 °F 73% 30.09 in 10.0 mi NE 13.8 mph - N/A   Clear
11:53 PM 37.0 °F 29.8 °F 30.0 °F 76% 30.13 in 10.0 mi NE 10.4 mph - N/A   Partly Cloudy